ARIANE 42P DEB, 47107

Orbit data source: Space-Track

ARIANE 42P DEB, 47107 is space debris in LEO originally from a launch on Mon, 10 Aug 1992 UTC launched from the French Guiana (FRGUI). Debris objects in space refer to the collection of defunct objects orbiting the Earth. Examples of debris include non-operational satellites, rocket bodies, and fragments generated from explosions, collisions, or faulty payload assembly.

Loading next visibility...
Identifier
47107, 1992-052N
Orbit
LEO
Country
Flag of FRFR
Related business
Manufacturer
ArianeGroup
Mission
Spacecraft
Bus & Motor
Unknown
Mass
Unknown
Launch date (UTC)
1992-08-10 (33 years ago)
Launch vehicle
Unknown
Launch site
French Guiana (FRGUI)
Object type
Payload
Rocket body
Debris
Shape & HBR
Unknown
Radar Cross Section
Small (<0.1 m²)

Expand to show TLE details & history
Last TLE update: 1 day ago

TLE from 1 day ago
0 ARIANE 42P DEB
1 47107U 92052N   25259.73259491  .00004313  00000-0  18049-1 0  9994
2 47107  66.0557 132.2938 0067142  75.2005 285.6438 12.83839579271716
Epoch: 2025-09-16T17:34Z
TLE epoch observation values (Epoch: 2025-09-16T17:34:56.2Z)
Latitude
-0.00001°
Longitude
-127.35904°
Altitude
1,314.358 km
Speed
7.207 km/s
True Right ascension
08h 49m 10s
True Declination
0° 00' 00"
Sunlit
Object was in daylight at epoch
Visualization orbit readout
Latitude
Unknown
Longitude
Unknown
Altitude
Unknown
Speed
Unknown
Apparent Right ascension
Unknown
Apparent Declination
Unknown
Sunlit
N/A
Visualization observer readout
Local Sidereal Time
15:40:07
Azimuth
Unknown
Elevation
Unknown
Doppler factor
Unknown
Orbital elements
Apogee altitude
1,376.348 km
Perigee altitude
1,272.912 km
Semi-major axis
7,702.767 km
Eccentricity
0.00671
Inclination
66.0557°
RAAN
132.2938°
Arg. of periapsis
75.2005°
True anomaly
284.90125°
Mean anomaly
285.6438°
Eccentric anomaly
285.27269°
Mean motion
3.2105 °/min
Orbital period
112.13 mins
BSTAR
0.018049
Loading maneuver chart data...
Computing Atmospheric mass density...
Loading historical data...
Loading historical data...
Loading historical data...
Loading historical data...
Loading historical data...
Loading historical data...
Loading historical data...

Documentation

Showing up to 5 results
|